Location: St. Louis
(38.6270°N, 90.1994°W)
Time: 10:36:05
(UTC-06:00)

A-11 Canister half - Pass Details

Date: 08 December 2021
Orbit: 1524 x 1684 km, 47.3° (Epoch: 25 January)

Event Time Altitude Azimuth Distance (km) Brightness Sun altitude
Rises 07:52:18 0° 298° (WNW) 4,898 11.0 6.7°
Reaches altitude 10° 07:55:50 10° 290° (WNW) 3,889 10.6 7.3°
Maximum altitude 08:04:24 35° 230° (SW) 2,391 10.0 8.6°
Drops below altitude 10° 08:12:44 10° 169° (SSE) 3,764 12.0 9.9°
Sets 08:16:07 0° 160° (SSE) 4,723 12.7 10.4°
